Simultaneous Nadir Overpasses (SNOs) Predictions

Prediction of SNOs between GOES-17 and AQUA Satellite Orbit:

Table of predicted SNOs for the next 14.0 days since TLE Epoch: 8/2/2019
Index Date Time (GOES-17) GOES-17 Lat,Lon AQUA Lat,Lon Distance(km) Time Diff (sec)
1 08/02/2019 22:42:26 0.04,-137.20 0.18,-136.42 88.13 80
2 08/03/2019 11:01:01 -0.04,-137.21 0.92,-141.58 498.03 80
3 08/04/2019 22:30:15 0.04,-137.20 0.85,-133.48 424.04 80
4 08/05/2019 10:48:51 -0.04,-137.20 0.25,-138.63 162.21 80
5 08/07/2019 10:39:19 -0.04,-137.20 -0.36,-135.67 173.18 80
6 08/07/2019 22:58:02 0.04,-137.19 -0.72,-140.87 417.88 80
7 08/09/2019 22:45:50 0.05,-137.18 -0.11,-137.91 83.29 80
8 08/11/2019 22:36:18 0.05,-137.16 0.50,-134.95 250.70 80
9 08/12/2019 10:54:54 -0.06,-137.16 0.60,-140.11 336.00 80
10 08/14/2019 10:45:23 -0.06,-137.13 -0.08,-137.16 3.65 80
11 08/16/2019 10:33:11 -0.06,-137.10 -0.70,-134.20 330.66 80




NCC Satellite Simultaneous Nadir Overpasses (SNOs) Prediction Service
